sat.trackr.live / text

‹ back to catalog

STARLINK-37390

NORAD 68782 · 2026-086S

PAYLOAD ACTIVE UNKNOWN

§ Identity

Operator
Country
US
Launch date
2026-04-19
Launch site
AFWTR
Launch vehicle
Mass (kg)
RCS (m²)

Purposes: comms

External: N2YO · Heavens-Above · Gunter

§ Orbital elements

Epoch: 2026-09-20T02:04:17.900256Z

Period
93.91 min
Inclination
97.2855°
Eccentricity
0.0001182
Mean motion
15.33448276 rev/d
Perigee alt
464.7 km
Apogee alt
466.3 km
Semi-major
6,843.7 km
B*
2.3299e-4
RAAN
298.5508°
Arg perigee
95.8441°
Mean anomaly
264.2936°
Rev number
2,362

§ Raw data

STARLINK-373901 68782U 26086S   26263.08631829  .00007455  00000+0  23299-3 0  99972 68782  97.2855 298.5508 0001182  95.8441 264.2936 15.33448276 23627

JSON: /api/v1/satellites/68782 · /tle

For live sub-satellite position, see the globe view (requires WebGL).

§ Visibility from observer

Set your observer location to see the next 7 days of passes ≥ 10°. The values pass through the URL so the page stays shareable.

No JS? Fill the form by hand. The geolocation button needs JavaScript.